Flag for U.S.A. Weather past 2 weeks in Duluth, Minnesota, U.S.A.

Now
64 °F

Fog.


Feels Like: 64 °F
Forecast: 59 / 75 °F
Wind: 6 mph from Northeast

Location: Sky Harbor Airport

Current Time: Sep 1, 2015 at 10:30:03 PM

Latest Report: Sep 1, 2015 at 9:54 PM


Visibility: 4 mi

Pressure: 29.92 "Hg

Humidity: 94%

Dew point: 63 °F

Location of DuluthLocation

Historic Weather in Duluth — Graph

°F

Duluth temperature yesterday

Maximum temperature yesterday: 84 °F (at 3:14 PM)
Minimum temperature yesterday: 63 °F (at 6:33 AM)
Average temperature yesterday: 73 °F

Past Weeks' High & Low Weather Summary

 TemperatureHumidityPressure
High84 °F (Aug 31, 3:14 PM)100% (Aug 19, 1:33 AM)30.20 "Hg (Aug 19, 1:33 AM)
Low48 °F (Aug 26, 5:34 AM)36% (Aug 26, 6:13 PM)29.42 "Hg (Aug 19, 10:34 AM)
Average63 °F82%29.88 "Hg
* Reported Aug 17 9:13 PM — Sep 1 9:14 PM, Duluth, Weather by CustomWeather, © 2015

Note: Actual official high and low records may vary slightly from our data, if they occured in-between our weather recording intervals... More about our weather records

Advertising

Duluth weather history for previous 24 hours

 ConditionsComfort  
Time TempWeatherWind HumidityBarometerVisibility
9:14 PM
Tue, Sep 1
66 °FFog.No wind94%29.91 "Hg5 mi
8:53 PM70 °FClear.No wind88%29.91 "Hg7 mi
8:33 PM72 °FSunny.No wind94%29.91 "Hg10 mi
8:14 PM70 °FSunny.No wind88%29.91 "Hg7 mi
7:53 PM68 °FSunny.No wind94%29.90 "Hg7 mi
7:33 PM70 °FSunny.No wind88%29.90 "Hg7 mi
7:14 PM70 °FSunny.3 mph88%29.89 "Hg7 mi
6:53 PM70 °FSunny.3 mph88%29.89 "Hg7 mi
6:33 PM70 °FSunny.3 mph88%29.89 "Hg10 mi
5:53 PM84 °FSunny.8 mph66%29.88 "Hg10 mi
4:34 PM84 °FSunny.6 mph66%29.88 "Hg10 mi
4:14 PM84 °FSunny.7 mph66%29.88 "Hg10 mi
3:54 PM84 °FSunny.6 mph66%29.88 "Hg10 mi
3:34 PM84 °FSunny.3 mph66%29.88 "Hg10 mi
3:14 PM84 °FSunny.No wind66%29.88 "Hg10 mi
2:53 PM82 °FSunny.5 mph70%29.88 "Hg10 mi
2:34 PM82 °FSunny.5 mph70%29.88 "Hg10 mi
2:13 PM81 °FScattered clouds.3 mph74%29.88 "Hg10 mi
1:54 PM79 °FSunny.5 mph79%29.88 "Hg10 mi
1:34 PM79 °FScattered clouds.No wind79%29.89 "Hg10 mi
1:13 PM81 °FScattered clouds.No wind74%29.88 "Hg10 mi
12:54 PM81 °FScattered clouds.No wind74%29.89 "Hg10 mi
12:33 PM79 °FScattered clouds.5 mph79%29.90 "Hg10 mi
12:14 PM77 °FScattered clouds.7 mph83%29.90 "Hg10 mi
11:54 AM77 °FScattered clouds.6 mph83%29.90 "Hg10 mi
11:33 AM77 °FScattered clouds.6 mph83%29.90 "Hg10 mi
11:14 AM75 °FSunny.3 mph89%29.90 "Hg10 mi
10:33 AM75 °FSunny.No wind83%29.90 "Hg10 mi
10:14 AM73 °FScattered clouds.3 mph89%29.90 "Hg10 mi
9:54 AM73 °FScattered clouds.3 mph89%29.90 "Hg10 mi
9:34 AM73 °FScattered clouds.6 mph89%29.90 "Hg10 mi
9:13 AM73 °FPartly sunny.5 mph89%29.90 "Hg10 mi
8:54 AM73 °FOvercast.7 mph89%29.90 "Hg10 mi
8:33 AM73 °FOvercast.7 mph89%29.90 "Hg7 mi
8:14 AM72 °FOvercast.6 mph94%29.90 "Hg7 mi
7:53 AM72 °FPartly sunny.5 mph94%29.90 "Hg7 mi
7:34 AM72 °FScattered clouds.3 mph94%29.90 "Hg7 mi
7:14 AM72 °FPassing clouds.5 mph94%29.90 "Hg7 mi
6:53 AM72 °FPassing clouds.5 mph94%29.89 "Hg7 mi
6:34 AM72 °FPassing clouds.3 mph94%29.88 "Hg7 mi
6:14 AM72 °FClear.5 mph94%29.88 "Hg7 mi
5:53 AM72 °FClear.5 mph94%29.88 "Hg7 mi
5:34 AM72 °FClear.5 mph94%29.88 "Hg10 mi
5:14 AM72 °FClear.6 mph94%29.88 "Hg7 mi
4:53 AM72 °FClear.5 mph94%29.87 "Hg10 mi
4:34 AM72 °FClear.6 mph94%29.87 "Hg10 mi
4:13 AM72 °FPassing clouds.6 mph94%29.87 "Hg7 mi
3:54 AM72 °FPassing clouds.5 mph94%29.87 "Hg7 mi
3:33 AM72 °FMostly cloudy.5 mph94%29.87 "Hg10 mi
3:14 AM72 °FMostly cloudy.5 mph94%29.86 "Hg10 mi
2:53 AM72 °FMostly cloudy.3 mph94%29.87 "Hg10 mi
2:34 AM72 °FPartly cloudy.3 mph94%29.87 "Hg7 mi
2:13 AM72 °FPassing clouds.No wind94%29.87 "Hg7 mi
1:53 AM72 °FPassing clouds.3 mph94%29.87 "Hg7 mi
1:34 AM72 °FClear.3 mph94%29.87 "Hg7 mi
1:13 AM72 °FPassing clouds.3 mph94%29.87 "Hg10 mi
12:53 AM72 °FPassing clouds.No wind94%29.87 "Hg10 mi
12:34 AM72 °FPassing clouds.No wind94%29.87 "Hg7 mi
12:13 AM72 °FClear.No wind94%29.86 "Hg10 mi
11:53 PM
Mon, Aug 31
72 °FPassing clouds.No wind94%29.86 "Hg10 mi
10:34 PM73 °FPassing clouds.10 mph94%29.85 "Hg10 mi
Weather by CustomWeather, © 2015

See weather overviewHow to use our weather pages